Regional Weather Roundup
Issued by NWS

Home | Current Version | Previous Version | Graphics & Text | Print | Product List | Glossary On
Versions: 1 2 3 4 5 6 7 8 9 10 11 12 13 14 15 16 17 18 19 20 21 22 23 24 25 26 27 28 29 30 31 32 33 34 35 36 37 38 39 40 41 42 43 44 45 46 47 48 49 50
000
ASUS45 KBOU 201007
RWRCO

WEATHER ROUNDUP FOR COLORADO
NATIONAL WEATHER SERVICE DENVER/BOULDER CO
300 AM MST FRI JAN 20 2017

NOTE: "FAIR" INDICATES FEW OR NO CLOUDS BELOW 12000 FEET WITH NO
SIGNIFICANT WEATHER AND/OR OBSTRUCTIONS TO VISIBILITY.

COZ001>005-013-030-031-201100-
...NORTHWEST COLORADO...

CITY           SKY/WX    TMP DP  RH WIND       PRES   REMARKS
CRAIG          LGT SNOW  27  25  92 CALM      29.58F FOG
HAYDEN         MOCLDY    25  21  86 E3        29.57F
MEEKER         LGT SNOW  27  25  92 W3        29.57F VSB 1
MOUNT WERNER   NOT AVBL
STEAMBOAT SPGS CLOUDY    23  22  96 CALM      29.56F
WALDEN           N/A     23  18  80 S9        29.54F WCI  13
$$

COZ006>008-011-201100-
...WEST CENTRAL VALLEYS...

CITY           SKY/WX    TMP DP  RH WIND       PRES   REMARKS
GRAND JUNCTION FOG       31  31 100 W3        29.60F VSB 1
MONTROSE       MOCLDY    30  30 100 SW3       29.60F
EAGLE          LGT SNOW  26  25  96 CALM      29.60F FOG
RIFLE          LGT SNOW  30  30 100 CALM      29.59F FOG
DELTA          CLOUDY    34  33  98 CALM      29.61S
NUCLA          LGT SNOW  32  32 100 SW7       29.65S VSB 1   WCI  26
$$

COZ017>023-064>068-201100-
...SOUTHWEST COLORADO...

CITY           SKY/WX    TMP DP  RH WIND       PRES   REMARKS
DURANGO        CLOUDY    29  25  85 W12       29.66S WCI  19
CORTEZ         CLOUDY    32  27  81 SW14      29.67S WCI  22
PAGOSA SPRINGS LGT SNOW  29  29 100 SW18G24   29.63F WCI  17
TELLURIDE      LGT SNOW  24  22  91 SW10G20   29.60S VSB 3/4 WCI  13
WOLF CREEK PAS CLOUDY    14  14 100 SW24G37   29.59F WCI  -5
$$

COZ009-010-012-014-032>034-037-058>063-201100-
...CENTRAL COLORADO...

CITY           SKY/WX    TMP DP  RH WIND       PRES   REMARKS
ASPEN          LGT SNOW  24  23  96 CALM      29.54F FOG
BUENA VISTA    CLOUDY    22  19  89 CALM      29.55F
COPPER MTN     SNOW      19  14  79 MISG      29.54F VSB 1/4
BERTHOUD PASS  NOT AVBL
COTTONWOOD PAS LGT SNOW  27  23  86 N3        29.53F
GUNNISON       MOCLDY    13  11  92 CALM      29.61F
KREMMLING      LGT SNOW  19  18  93 CALM      29.59F
LEADVILLE      CLOUDY    19  15  84 CALM      29.52F
MONARCH PASS   HVY SNOW  16  12  86 SW14G24   29.63F VSB 1/4 WCI   1
SALIDA         CLOUDY    30  19  64 W9G16     29.61F WCI  21
SUNLIGHT       LGT SNOW  18  16  93 SW7       29.59F VSB 3/4 WCI   8
WILKERSON PASS FOG      N/A N/A N/A W8        29.53F VSB 3/4
$$

COZ069>075-201100-
...SAN LUIS VALLEY/SANGRE DE CRISTO MOUNTAINS...

CITY           SKY/WX    TMP DP  RH WIND       PRES   REMARKS
ALAMOSA        CLOUDY    18  16  92 NW3       29.60F
LA VETA PASS   CLOUDY    21  19  93 NE25G45   29.50F WCI   4
SAGUACHE       CLOUDY    21  21 100 E3        29.61F
$$

COZ035-036-038>040-201100-
...NORTHERN COLORADO FRONT RANGE...

CITY           SKY/WX    TMP DP  RH WIND       PRES   REMARKS
DENVER INTL AP CLOUDY    36  20  52 NE5       29.46F
DMNS CITY PARK   N/A     32  24  71 E8        29.46F WCI  25
AURORA         CLOUDY    32  24  71 W5        29.47F WCI  28
FRONT RANGE AP CLOUDY    36  23  60 NE8       29.47S
ERIE MUNI ARPT CLOUDY    31  27  84 CALM      29.47S
BOULDER MUN AP CLOUDY    36  23  60 S3        29.45F
CENTENNIAL     CLOUDY    35  21  56 NW5       29.46F WCI  31
BROOMFIELD     FAIR      37  21  52 CALM      29.46F
FORT COLLINS   FAIR      30  21  69 N5        29.47F WCI  25
LONGMONT       CLOUDY    32  28  83 CALM      29.48F
$$

COZ041-046-047-076>085-087-088-201100-
...PIKES PEAK/PALMER DIVIDE AND SOUTHERN FOOTHILLS...

CITY           SKY/WX    TMP DP  RH WIND       PRES   REMARKS
COLO. SPRINGS  CLOUDY    37  20  50 E5        29.47S
A. F. ACADEMY  CLOUDY    38  25  60 VRB3      29.46S
SCHRIEVER AFB  NOT AVBL
ELLICOTT       CLOUDY   N/A N/A N/A NE5       29.44F
FALCON         CLOUDY    36  24  62 NW3       29.48S
FORT CARSON    LGT RAIN  37  24  60 S5        29.47F
LIMON          FAIR      23  22  96 CALM      29.47F
MONUMENT HILL  CLOUDY    32  27  80 W6        29.48F WCI  26
TRINIDAD       CLOUDY    37  27  67 SE3       29.47F
$$

COZ042>045-048>051-090-091-201100-
...NORTHEAST COLORADO...

CITY           SKY/WX    TMP DP  RH WIND       PRES   REMARKS
GREELEY ARPT   CLOUDY    26  24  92 CALM      29.48F
AKRON          FAIR      32  22  66 NE5       29.46S WCI  27
BURLINGTON     NOT AVBL
WRAY           NOT AVBL
STERLING       FAIR      23  23 100 CALM      29.46F
HOLYOKE        FAIR      34  28  80 NW9       29.46F WCI  26
FORT MORGAN    FAIR      26  23  90 SW3       29.47S
$$

COZ086-089-092>099-201100-
...SOUTHEAST COLORADO...

CITY           SKY/WX    TMP DP  RH WIND       PRES   REMARKS
PUEBLO         CLOUDY    45  30  55 NW14      29.44F
LA JUNTA       CLOUDY    29  25  85 E5        29.46F WCI  24
LAMAR          CLOUDY    29  28  96 SW6       29.47F FOG     WCI  23
SPRINGFIELD      N/A     38  30  73 W9        29.48S
$$



USA.gov is the U.S. government's official web portal to all federal, state and local government web resources and services.